SWR8PV LSGG-LSZH

Flight info

Callsign SWR8PV
Flight time 0h 35m
Altitude 17000
Route SOSAL N871 BERSU
Aircraft A320/M-SDE3FGHIRWY/LB1

Departure

Time 2026-04-26 13:01
Airport Geneva International Airport (LSGG)

Arrival

Time 2026-04-26 13:36
Airport Zürich Airport (LSZH)
Time Latitude Longitude Altitude Speed Heading
2026-04-26 12:38 46.22945 6.10454 1393 ft 0 kts 135°
2026-04-26 12:52 46.22954 6.10441 1393 ft 4 kts 140°
2026-04-26 12:52 46.22976 6.10420 1401 ft 4 kts 162°
2026-04-26 12:52 46.23000 6.10418 1404 ft 4 kts 211°
2026-04-26 12:52 46.23009 6.10428 1404 ft 1 kts 225°
2026-04-26 12:53 46.23010 6.10429 1397 ft 0 kts 225°
2026-04-26 12:54 46.22996 6.10409 1404 ft 5 kts 225°
2026-04-26 12:55 46.22975 6.10378 1402 ft 4 kts 225°
2026-04-26 12:55 46.22952 6.10341 1395 ft 6 kts 238°
2026-04-26 12:55 46.22960 6.10297 1400 ft 4 kts 305°
2026-04-26 12:55 46.22993 6.10248 1398 ft 8 kts 315°
2026-04-26 12:56 46.23030 6.10195 1395 ft 7 kts 316°
2026-04-26 12:56 46.23053 6.10154 1399 ft 4 kts 291°
2026-04-26 12:56 46.23043 6.10112 1394 ft 6 kts 236°
2026-04-26 12:56 46.23014 6.10066 1403 ft 6 kts 225°
2026-04-26 12:57 46.22975 6.10009 1401 ft 10 kts 225°
2026-04-26 12:57 46.22925 6.09936 1399 ft 11 kts 225°
2026-04-26 12:57 46.22877 6.09864 1400 ft 9 kts 225°
2026-04-26 12:58 46.22789 6.09736 1397 ft 11 kts 225°
2026-04-26 12:58 46.22735 6.09656 1403 ft 13 kts 225°
2026-04-26 12:58 46.22671 6.09564 1399 ft 12 kts 225°
2026-04-26 12:58 46.22615 6.09481 1398 ft 11 kts 225°
2026-04-26 12:59 46.22571 6.09403 1402 ft 9 kts 239°
2026-04-26 12:59 46.22553 6.09330 1405 ft 6 kts 259°
2026-04-26 12:59 46.22550 6.09275 1407 ft 5 kts 270°
2026-04-26 12:59 46.22552 6.09225 1411 ft 4 kts 278°
2026-04-26 13:00 46.22567 6.09180 1413 ft 6 kts 307°
2026-04-26 13:00 46.22617 6.09161 1420 ft 10 kts 18°
2026-04-26 13:00 46.22694 6.09262 1417 ft 33 kts 45°
2026-04-26 13:00 46.23034 6.09762 1414 ft 103 kts 45°
2026-04-26 13:01 46.23673 6.10702 1404 ft 155 kts 45°
2026-04-26 13:01 46.24431 6.11836 2002 ft 156 kts 45°
2026-04-26 13:01 46.25191 6.12960 2683 ft 157 kts 46°
2026-04-26 13:01 46.25973 6.14100 3284 ft 168 kts 46°
2026-04-26 13:02 46.26852 6.15371 3613 ft 189 kts 46°
2026-04-26 13:02 46.27812 6.16768 3962 ft 209 kts 45°
2026-04-26 13:02 46.28889 6.18356 4256 ft 235 kts 45°
2026-04-26 13:02 46.30090 6.20138 4770 ft 256 kts 45°
2026-04-26 13:03 46.31348 6.22007 5666 ft 262 kts 44°
2026-04-26 13:03 46.32646 6.23920 6515 ft 270 kts 45°
2026-04-26 13:03 46.33969 6.25865 7389 ft 274 kts 45°
2026-04-26 13:03 46.35314 6.27833 8299 ft 277 kts 45°
2026-04-26 13:04 46.36541 6.30016 9147 ft 283 kts 59°
2026-04-26 13:04 46.37345 6.32629 10036 ft 287 kts 74°
2026-04-26 13:04 46.37906 6.35463 10605 ft 303 kts 74°
2026-04-26 13:04 46.38512 6.38509 10907 ft 326 kts 74°
2026-04-26 13:05 46.39155 6.41719 11280 ft 345 kts 73°
2026-04-26 13:05 46.39835 6.45101 11929 ft 353 kts 73°
2026-04-26 13:05 46.40536 6.48585 12675 ft 359 kts 73°
2026-04-26 13:05 46.41231 6.52043 13398 ft 364 kts 73°
2026-04-26 13:06 46.41941 6.55590 14128 ft 369 kts 73°
2026-04-26 13:06 46.42658 6.59192 14773 ft 374 kts 73°
2026-04-26 13:06 46.43387 6.62851 15415 ft 379 kts 73°
2026-04-26 13:06 46.44235 6.66485 16072 ft 383 kts 65°
2026-04-26 13:07 46.45526 6.69883 16689 ft 387 kts 53°
2026-04-26 13:07 46.47192 6.72959 17380 ft 389 kts 49°
2026-04-26 13:07 46.48912 6.76014 17944 ft 394 kts 50°
2026-04-26 13:07 46.50644 6.79109 18130 ft 395 kts 49°
2026-04-26 13:08 46.52388 6.82238 18176 ft 411 kts 49°
2026-04-26 13:08 46.54193 6.85490 18173 ft 415 kts 50°
2026-04-26 13:08 46.56008 6.88771 18175 ft 416 kts 50°
2026-04-26 13:08 46.57821 6.92053 18175 ft 416 kts 50°
2026-04-26 13:09 46.59639 6.95336 18177 ft 417 kts 50°
2026-04-26 13:09 46.61463 6.98620 18181 ft 416 kts 50°
2026-04-26 13:09 46.63286 7.01897 18182 ft 416 kts 50°
2026-04-26 13:09 46.65108 7.05175 18184 ft 416 kts 50°
2026-04-26 13:10 46.66927 7.08451 18184 ft 416 kts 50°
2026-04-26 13:10 46.68749 7.11731 18185 ft 417 kts 50°
2026-04-26 13:10 46.70571 7.15023 18187 ft 417 kts 50°
2026-04-26 13:10 46.72363 7.18271 18186 ft 417 kts 50°
2026-04-26 13:11 46.74185 7.21578 18192 ft 417 kts 50°
2026-04-26 13:11 46.76001 7.24873 18173 ft 417 kts 50°
2026-04-26 13:11 46.77818 7.28178 18169 ft 417 kts 49°
2026-04-26 13:11 46.79635 7.31486 18162 ft 417 kts 50°
2026-04-26 13:12 46.81449 7.34797 18165 ft 417 kts 50°
2026-04-26 13:12 46.83260 7.38108 18168 ft 417 kts 50°
2026-04-26 13:12 46.85072 7.41418 18166 ft 417 kts 50°
2026-04-26 13:12 46.86856 7.44688 18164 ft 417 kts 50°
2026-04-26 13:13 46.88663 7.48006 18165 ft 417 kts 50°
2026-04-26 13:13 46.90468 7.51328 18162 ft 417 kts 50°
2026-04-26 13:13 46.92274 7.54657 18161 ft 417 kts 50°
2026-04-26 13:13 46.94074 7.57984 18165 ft 417 kts 49°
2026-04-26 13:14 46.95878 7.61318 18158 ft 417 kts 50°
2026-04-26 13:14 46.97678 7.64653 18160 ft 418 kts 49°
2026-04-26 13:14 46.99479 7.67994 18160 ft 418 kts 50°
2026-04-26 13:14 47.01283 7.71333 18158 ft 418 kts 50°
2026-04-26 13:15 47.03093 7.74674 18155 ft 418 kts 50°
2026-04-26 13:15 47.04898 7.78008 18156 ft 418 kts 49°
2026-04-26 13:15 47.06702 7.81351 18160 ft 418 kts 49°
2026-04-26 13:15 47.07894 7.83566 18162 ft 418 kts 50°
2026-04-26 13:16 47.10271 7.87998 18161 ft 417 kts 50°
2026-04-26 13:16 47.12068 7.91349 18159 ft 417 kts 50°
2026-04-26 13:16 47.13705 7.94789 17912 ft 406 kts 58°
2026-04-26 13:16 47.14951 7.98466 17647 ft 399 kts 63°
2026-04-26 13:17 47.17252 8.05675 17115 ft 371 kts 63°
2026-04-26 13:17 47.18319 8.09014 16862 ft 351 kts 63°
2026-04-26 13:18 47.20290 8.15208 16358 ft 319 kts 63°
2026-04-26 13:18 47.21309 8.18043 16109 ft 310 kts 54°
2026-04-26 13:18 47.24206 8.22566 15613 ft 300 kts 33°
2026-04-26 13:19 47.25982 8.24135 15366 ft 295 kts 23°
2026-04-26 13:19 47.27884 8.25221 15032 ft 290 kts 13°
2026-04-26 13:19 47.29843 8.25807 14647 ft 285 kts
2026-04-26 13:19 47.31803 8.26190 14236 ft 283 kts
2026-04-26 13:20 47.33752 8.26577 13796 ft 281 kts
2026-04-26 13:20 47.35708 8.26969 13362 ft 286 kts
2026-04-26 13:20 47.37653 8.27206 13141 ft 279 kts 352°
2026-04-26 13:20 47.39457 8.26354 12927 ft 270 kts 325°
2026-04-26 13:21 47.40750 8.24408 12629 ft 266 kts 297°
2026-04-26 13:21 47.41179 8.22727 12439 ft 265 kts 281°
2026-04-26 13:21 47.41447 8.19090 11990 ft 267 kts 274°
2026-04-26 13:21 47.41570 8.16352 11683 ft 268 kts 274°
2026-04-26 13:22 47.41650 8.14533 11494 ft 268 kts 274°
2026-04-26 13:22 47.41769 8.11805 11288 ft 265 kts 274°
2026-04-26 13:22 47.42133 8.09154 11191 ft 265 kts 296°
2026-04-26 13:22 47.43289 8.07050 11198 ft 268 kts 324°
2026-04-26 13:23 47.45000 8.06003 11200 ft 270 kts 352°
2026-04-26 13:23 47.46863 8.06275 11201 ft 273 kts 20°
2026-04-26 13:23 47.48443 8.07786 11023 ft 273 kts 47°
2026-04-26 13:23 47.49487 8.11091 10621 ft 272 kts 85°
2026-04-26 13:24 47.49418 8.12963 10428 ft 270 kts 104°
2026-04-26 13:24 47.48659 8.15484 10113 ft 269 kts 121°
2026-04-26 13:24 47.47680 8.17797 9768 ft 268 kts 123°
2026-04-26 13:24 47.46669 8.20101 9435 ft 266 kts 123°
2026-04-26 13:25 47.45657 8.22382 9100 ft 264 kts 123°
2026-04-26 13:25 47.44851 8.24792 8779 ft 261 kts 102°
2026-04-26 13:25 47.44881 8.27435 8443 ft 259 kts 73°
2026-04-26 13:25 47.45779 8.29692 8093 ft 256 kts 43°
2026-04-26 13:26 47.47311 8.30987 7746 ft 256 kts 14°
2026-04-26 13:26 47.49066 8.30981 7394 ft 256 kts 344°
2026-04-26 13:26 47.50620 8.29725 7025 ft 256 kts 322°
2026-04-26 13:26 47.51935 8.28070 6858 ft 246 kts 319°
2026-04-26 13:27 47.53182 8.26412 6743 ft 237 kts 319°
2026-04-26 13:27 47.54385 8.24779 6622 ft 232 kts 319°
2026-04-26 13:27 47.55543 8.23187 6482 ft 220 kts 318°
2026-04-26 13:27 47.56624 8.21706 6375 ft 203 kts 319°
2026-04-26 13:28 47.57641 8.20289 6103 ft 200 kts 319°
2026-04-26 13:28 47.58639 8.18882 5980 ft 198 kts 319°
2026-04-26 13:28 47.59638 8.17485 6003 ft 198 kts 319°
2026-04-26 13:28 47.60640 8.16080 6002 ft 198 kts 319°
2026-04-26 13:29 47.61766 8.14943 5988 ft 195 kts 346°
2026-04-26 13:29 47.63083 8.15007 5989 ft 191 kts 24°
2026-04-26 13:29 47.64059 8.16282 6000 ft 190 kts 62°
2026-04-26 13:29 47.64257 8.18185 5996 ft 191 kts 100°
2026-04-26 13:30 47.63811 8.20023 6003 ft 193 kts 112°
2026-04-26 13:30 47.63247 8.21833 5985 ft 193 kts 113°
2026-04-26 13:30 47.62665 8.23637 5984 ft 194 kts 114°
2026-04-26 13:30 47.62086 8.25442 6003 ft 194 kts 113°
2026-04-26 13:31 47.61626 8.27299 5899 ft 190 kts 105°
2026-04-26 13:31 47.61258 8.29181 5530 ft 190 kts 104°
2026-04-26 13:31 47.60899 8.31064 5190 ft 189 kts 104°
2026-04-26 13:31 47.60548 8.32933 4778 ft 188 kts 104°
2026-04-26 13:32 47.60201 8.34787 4415 ft 191 kts 103°
2026-04-26 13:32 47.59859 8.36670 4168 ft 188 kts 102°
2026-04-26 13:32 47.59286 8.38384 4012 ft 189 kts 129°
2026-04-26 13:32 47.58344 8.39727 3988 ft 188 kts 133°
2026-04-26 13:33 47.57375 8.41048 3838 ft 189 kts 133°
2026-04-26 13:33 47.56419 8.42359 3630 ft 186 kts 132°
2026-04-26 13:33 47.55477 8.43650 3393 ft 179 kts 134°
2026-04-26 13:33 47.54583 8.44877 3175 ft 172 kts 133°
2026-04-26 13:34 47.53715 8.46067 2946 ft 170 kts 134°
2026-04-26 13:34 47.52853 8.47248 2729 ft 167 kts 134°
2026-04-26 13:34 47.52014 8.48399 2462 ft 162 kts 134°
2026-04-26 13:34 47.51474 8.49137 2302 ft 157 kts 134°
2026-04-26 13:35 47.50435 8.50562 2011 ft 148 kts 131°
2026-04-26 13:35 47.49695 8.51573 1807 ft 144 kts 133°
2026-04-26 13:35 47.48965 8.52568 1634 ft 145 kts 133°
2026-04-26 13:35 47.48221 8.53586 1470 ft 145 kts 131°
2026-04-26 13:36 47.47520 8.54547 1409 ft 124 kts 137°
2026-04-26 13:36 47.47010 8.55246 1405 ft 75 kts 137°
2026-04-26 13:36 47.46752 8.55599 1409 ft 26 kts 137°
2026-04-26 13:36 47.46629 8.55674 1407 ft 13 kts 172°
2026-04-26 13:37 47.46558 8.55692 1403 ft 7 kts 168°
2026-04-26 13:37 47.46503 8.55710 1408 ft 9 kts 167°
2026-04-26 13:37 47.46444 8.55730 1406 ft 9 kts 167°
2026-04-26 13:37 47.46388 8.55757 1401 ft 8 kts 153°
2026-04-26 13:38 47.46349 8.55805 1403 ft 7 kts 138°
2026-04-26 13:38 47.46317 8.55848 1402 ft 6 kts 137°
2026-04-26 13:38 47.46281 8.55897 1403 ft 8 kts 137°
2026-04-26 13:38 47.46236 8.55959 1404 ft 9 kts 137°
2026-04-26 13:39 47.46179 8.56003 1402 ft 9 kts 175°
2026-04-26 13:39 47.46117 8.55995 1397 ft 8 kts 186°
2026-04-26 13:39 47.46063 8.55986 1397 ft 7 kts 186°
2026-04-26 13:39 47.46006 8.55977 1397 ft 9 kts 186°
2026-04-26 13:40 47.45948 8.55960 1397 ft 8 kts 198°
2026-04-26 13:40 47.45899 8.55934 1401 ft 7 kts 200°
2026-04-26 13:40 47.45860 8.55913 1401 ft 5 kts 199°
2026-04-26 13:40 47.45829 8.55897 1404 ft 6 kts 199°
2026-04-26 13:41 47.45772 8.55878 1402 ft 8 kts 186°
2026-04-26 13:41 47.45699 8.55866 1400 ft 12 kts 186°
2026-04-26 13:41 47.45610 8.55851 1400 ft 13 kts 186°
2026-04-26 13:41 47.45542 8.55841 1397 ft 9 kts 182°
2026-04-26 13:42 47.45500 8.55887 1400 ft 8 kts 107°
2026-04-26 13:42 47.45498 8.55905 1398 ft 0 kts 99°
2026-04-26 13:42 47.45498 8.55907 1401 ft 0 kts 99°
2026-04-26 13:43 47.45497 8.55910 1401 ft 1 kts 99°
2026-04-26 13:43 47.45496 8.55930 1397 ft 2 kts 96°
2026-04-26 13:43 47.45494 8.55949 1399 ft 2 kts 96°
2026-04-26 13:43 47.45493 8.55973 1397 ft 3 kts 96°
2026-04-26 13:44 47.45477 8.56007 1400 ft 5 kts 152°
2026-04-26 13:44 47.45448 8.56009 1401 ft 4 kts 182°
2026-04-26 13:44 47.45423 8.56005 1397 ft 3 kts 186°
2026-04-26 13:44 47.45411 8.56003 1401 ft 0 kts 186°